Regional Weather Roundup
Issued by NWS Little Rock, AR

Home | Current Version | Previous Version | Graphics & Text | Print | Product List | Glossary On
Versions: 1 2 3 4 5 6 7 8 9 10 11 12 13 14 15 16 17 18 19 20 21 22 23 24 25 26 27 28 29 30 31 32 33 34 35 36 37 38 39 40 41 42 43 44 45 46 47 48 49 50
233
ASUS44 KLZK 070605
RWRLZK

WEATHER ROUNDUP FOR ARKANSAS
NATIONAL WEATHER SERVICE LITTLE ROCK AR
1200 AM CST SUN FEB 07 2016

NOTE: "FAIR" INDICATES FEW OR NO CLOUDS BELOW 12,000 FEET WITH NO
SIGNIFICANT WEATHER AND/OR OBSTRUCTIONS TO VISIBILITY.

ARZ001-003-010-029-070700-
NORTHWEST ARKANSAS

CITY           SKY/WX    TMP DP  RH WIND       PRES   REMARKS
FAYETTEVILLE   CLEAR     30  25  81 CALM      30.23F
6HR MIN TEMP:  28; 6HR MAX TEMP:  46;

FORT SMITH     CLOUDY    37  24  59 CALM      30.26F
6HR MIN TEMP:  35; 6HR MAX TEMP:  50;

HARRISON       CLEAR     42  24  49 SW5       30.22F
6HR MIN TEMP:  41; 6HR MAX TEMP:  49;

BENTONVILLE    CLOUDY   N/A N/A N/A SW5       30.22S
ROGERS         PTCLDY    39  28  64 SW7       30.22S
6HR MIN TEMP:  38; 6HR MAX TEMP:  47;

SILOAM SPGS    CLOUDY    37  23  56 SW6       30.23S
6HR MIN TEMP:  36; 6HR MAX TEMP:  46;

HIGHFILL       CLOUDY    39  30  70 SW8       30.22S
6HR MIN TEMP:  37; 6HR MAX TEMP:  46;

$$

ARZ004-005-016-070700-
NORTH CENTRAL ARKANSAS

CITY           SKY/WX    TMP DP  RH WIND       PRES   REMARKS
BATESVILLE     CLEAR     39  19  45 S3        30.28F
6HR MIN TEMP:  39; 6HR MAX TEMP:  48;

FLIPPIN        PTCLDY    37  16  41 CALM      30.21F
6HR MIN TEMP:  37; 6HR MAX TEMP:  52;

MTN HOME       CLEAR     36  19  50 S6        30.22F
6HR MIN TEMP:  36; 6HR MAX TEMP:  48;

$$

ARZ040-041-070700-
WEST CENTRAL ARKANSAS

CITY           SKY/WX    TMP DP  RH WIND       PRES   REMARKS
MENA           CLEAR     32  27  80 CALM      30.27F
MOUNT IDA      PTCLDY    29  23  78 CALM      30.26R
6HR MIN TEMP:  29; 6HR MAX TEMP:  49;

$$

ARZ009-017-025-026-028-070700-
NORTHEAST ARKANSAS

CITY           SKY/WX    TMP DP  RH WIND       PRES   REMARKS
CORNING        FAIR      37  27  65 SW8       30.27S
JONESBORO      CLEAR     31  24  75 CALM      30.28F
6HR MIN TEMP:  30; 6HR MAX TEMP:  44;

NEWPORT        CLEAR     34  26  72 S7        30.29F WCI  28
6HR MIN TEMP:  34; 6HR MAX TEMP:  43;

WALNUT RIDGE   CLEAR     34  21  60 SW8       30.28S WCI  27
6HR MIN TEMP:  34; 6HR MAX TEMP:  45;

BLYTHEVILLE    CLEAR     36  27  69 S6        30.28F
6HR MIN TEMP:  36; 6HR MAX TEMP:  48;

$$

ARZ022-023-033-042-044-070700-
CENTRAL ARKANSAS

CITY           SKY/WX    TMP DP  RH WIND       PRES   REMARKS
LITTLE ROCK    CLEAR     37  27  67 SW5       30.30S
6HR MIN TEMP:  36; 6HR MAX TEMP:  49;

N LITTLE ROCK  CLEAR     41  25  52 SW6       30.30S
6HR MIN TEMP:  40; 6HR MAX TEMP:  50;

JACKSONVILLE   CLEAR     29  24  80 CALM      30.28F
6HR MIN TEMP:  29; 6HR MAX TEMP:  45;

SEARCY         CLEAR     30  27  86 CALM      30.31S
6HR MIN TEMP:  30; 6HR MAX TEMP:  46;

HOT SPRINGS    CLEAR     32  25  75 CALM      30.30S
6HR MIN TEMP:  32; 6HR MAX TEMP:  52;

RUSSELLVILLE   CLEAR     30  23  75 CALM      30.27F HAZE
6HR MIN TEMP:  30; 6HR MAX TEMP:  46;

CLINTON        FAIR      27  23  86 CALM      30.29F
$$

ARZ036-070700-
EAST ARKANSAS

CITY           SKY/WX    TMP DP  RH WIND       PRES   REMARKS
WEST MEMPHIS   CLEAR     34  27  75 CALM      30.28F
6HR MIN TEMP:  32; 6HR MAX TEMP:  47;

$$

ARZ050-053-066-070-073-070700-
SOUTHWEST ARKANSAS

CITY           SKY/WX    TMP DP  RH WIND       PRES   REMARKS
ARKADELPHIA    FAIR      31  31 100 CALM      30.32S
6HR MIN TEMP:  31; 6HR MAX TEMP:  48;

CAMDEN         CLEAR     28  25  86 CALM      30.31F
TEXARKANA      CLEAR     39  31  72 SW7       30.32R
6HR MIN TEMP:  38; 6HR MAX TEMP:  49;

EL DORADO      CLEAR     32  27  81 CALM      30.31F
6HR MIN TEMP:  31; 6HR MAX TEMP:  47;

DE QUEEN       CLEAR     29  28  96 CALM      30.30S
6HR MIN TEMP:  29; 6HR MAX TEMP:  53;

$$

ARZ056-057-069-070700-
SOUTHEAST ARKANSAS

CITY           SKY/WX    TMP DP  RH WIND       PRES   REMARKS
PINE BLUFF     CLEAR     34  28  79 CALM      30.31F
6HR MIN TEMP:  33; 6HR MAX TEMP:  50;

STUTTGART      CLEAR     43  25  49 S7        30.30F
6HR MIN TEMP:  43; 6HR MAX TEMP:  52;

MONTICELLO     CLEAR     35  25  66 CALM      30.30F
6HR MIN TEMP:  33; 6HR MAX TEMP:  50;


$$






USA.gov is the U.S. government's official web portal to all federal, state and local government web resources and services.